This is the latest recevied weather packets stored in our database for station/object OM5AST-13. If no packets are shown the sender has not sent any weather packets the latest 10 day(s).
| Time | Temp. | Humidity | Pressure | Rain* | Wind** | Luminosity | Snow |
|---|---|---|---|---|---|---|---|
| 1777619035 | 15.56° C | 35% | - | 0 mm | - | 0 W/m² | - |
| 1777617835 | 13.89° C | 54% | - | 0 mm | - | 0 W/m² | - |
| 1777616636 | 12.22° C | 41% | - | 0 mm | - | 0 W/m² | - |
| 1777615435 | 12.22° C | 40% | - | 0 mm | - | 0 W/m² | - |
| 1777614235 | 11.11° C | 42% | - | 0 mm | - | 0 W/m² | - |
| 1777613035 | 10.56° C | 43% | - | 0 mm | - | 0 W/m² | - |
| 1777611835 | 10° C | 44% | - | 0 mm | - | 0 W/m² | - |
| 1777610635 | 9.44° C | 45% | - | 0 mm | - | 0 W/m² | - |
| 1777609435 | 9.44° C | 44% | - | 0 mm | - | 0 W/m² | - |
| 1777608236 | 10° C | 43% | - | 0 mm | - | 0 W/m² | - |
| 1777607035 | 10° C | 42% | - | 0 mm | - | 0 W/m² | - |
| 1777605835 | 10.56° C | 40% | - | 0 mm | - | 0 W/m² | - |
| 1777604635 | 10.56° C | 39% | - | 0 mm | - | 0 W/m² | - |
| 1777603435 | 10° C | 38% | - | 0 mm | - | 0 W/m² | - |
| 1777602235 | 10° C | 38% | - | 0 mm | - | 0 W/m² | - |
| 1777601035 | 10° C | 38% | - | 0 mm | - | 0 W/m² | - |
| 1777599835 | 10° C | 39% | - | 0 mm | - | 0 W/m² | - |
| 1777598636 | 10° C | 39% | - | 0 mm | - | 0 W/m² | - |
| 1777597435 | 10° C | 38% | - | 0 mm | - | 0 W/m² | - |
| 1777596235 | 10° C | 38% | - | 0 mm | - | 0 W/m² | - |
| 1777595035 | 10.56° C | 37% | - | 0 mm | - | 0 W/m² | - |
| 1777593835 | 10.56° C | 36% | - | 0 mm | - | 0 W/m² | - |
| 1777592635 | 10.56° C | 37% | - | 0 mm | - | 0 W/m² | - |
| 1777591435 | 10.56° C | 36% | - | 0 mm | - | 0 W/m² | - |
| 1777590235 | 11.11° C | 35% | - | 0 mm | - | 0 W/m² | - |
* Rain latest hour (hover to see other rain measurements)
** Current wind speed in m/s (hover to see current wind gust speed)